Total_Precipitation_Accumulation
0.42 0.38 0.47 0.42 0.39 0.39 0.42 0.43 0.46 0.47 0.48 0.55 0.57 0.58 0.60 0.59 0.65 0.72 0.75 0.83 0.88 0.92 0.94 0.98 0.97 0.98 0.87 0.83 0.73 0.67 0.65 0.73 0.76 0.78 0.79 0.88 1.01 1.14 1.36 1.50 1.53 1.11 0.98
0.17 0.23 0.37 0.35 0.34 0.37 0.36 0.34 0.39 0.41 0.41 0.49 0.58 0.61 0.60 0.58 0.61 0.63 0.69 0.78 0.83 0.85 0.82 0.80 0.80 0.74 0.66 0.63 0.60 0.58 0.64 0.79 0.99 1.09 1.11 1.07 1.11 1.19 1.34 1.33 1.51 1.07 0.91
0.11 0.15 0.23 0.31 0.31 0.32 0.32 0.33 0.36 0.37 0.38 0.46 0.55 0.59 0.57 0.58 0.63 0.64 0.65 0.69 0.72 0.72 0.67 0.66 0.67 0.60 0.53 0.46 0.47 0.51 0.62 0.89 1.23 1.46 1.56 1.19 0.87 1.14 1.29 1.15 1.02 0.86 0.84
0.10 0.10 0.14 0.23 0.27 0.27 0.29 0.33 0.35 0.37 0.37 0.42 0.46 0.51 0.54 0.58 0.61 0.64 0.63 0.62 0.61 0.57 0.52 0.53 0.49 0.47 0.44 0.41 0.45 0.55 0.73 0.94 1.25 1.66 1.73 1.08 0.66 0.84 1.00 0.86 0.81 0.70 0.71
0.12 0.11 0.15 0.20 0.24 0.26 0.27 0.34 0.35 0.35 0.36 0.39 0.38 0.43 0.49 0.53 0.54 0.57 0.60 0.61 0.56 0.50 0.46 0.45 0.39 0.36 0.40 0.41 0.47 0.60 0.79 0.99 1.34 1.55 1.23 1.07 0.97 0.88 0.80 0.77 0.72 0.63 0.58
0.19 0.15 0.20 0.23 0.23 0.25 0.26 0.31 0.32 0.31 0.32 0.34 0.33 0.36 0.42 0.44 0.47 0.53 0.54 0.54 0.51 0.46 0.39 0.40 0.36 0.35 0.37 0.39 0.50 0.64 0.83 1.14 1.30 0.91 0.83 0.90 0.90 0.90 0.82 0.91 0.79 0.66 0.57
0.29 0.24 0.28 0.30 0.28 0.26 0.28 0.31 0.32 0.30 0.32 0.32 0.34 0.35 0.38 0.39 0.44 0.48 0.46 0.44 0.41 0.38 0.33 0.37 0.42 0.42 0.45 0.49 0.57 0.69 0.90 1.22 1.03 0.69 0.84 1.06 0.98 0.88 0.85 1.01 0.97 0.76 0.61
0.41 0.31 0.32 0.39 0.37 0.31 0.32 0.36 0.36 0.32 0.34 0.35 0.35 0.34 0.36 0.38 0.42 0.40 0.41 0.43 0.39 0.36 0.36 0.39 0.40 0.47 0.53 0.53 0.58 0.69 0.88 1.02 0.70 0.68 0.79 0.91 0.83 0.87 0.90 1.06 1.09 0.92 0.75
0.47 0.44 0.40 0.38 0.36 0.35 0.40 0.43 0.42 0.37 0.38 0.38 0.36 0.33 0.34 0.38 0.42 0.40 0.42 0.47 0.44 0.40 0.41 0.43 0.37 0.39 0.43 0.48 0.53 0.62 0.83 0.96 0.79 0.78 0.75 0.77 0.66 0.75 0.91 1.04 1.00 0.96 0.87
0.65 0.60 0.59 0.55 0.48 0.42 0.41 0.46 0.49 0.46 0.45 0.42 0.41 0.40 0.45 0.52 0.52 0.50 0.46 0.50 0.48 0.46 0.51 0.53 0.46 0.44 0.51 0.59 0.67 0.77 0.92 0.77 0.85 0.80 0.90 0.90 0.76 0.87 1.08 1.16 1.05 0.98 0.95
0.95 0.83 0.74 0.64 0.57 0.54 0.44 0.44 0.51 0.54 0.53 0.55 0.58 0.59 0.74 0.92 0.89 0.92 0.79 0.83 0.80 0.76 0.78 0.81 0.77 0.70 0.68 0.65 0.87 1.12 0.92 0.74 0.96 1.00 1.02 0.98 0.95 1.14 1.39 1.37 1.27 1.16 1.07
1.21 0.91 0.84 0.67 0.62 0.54 0.46 0.57 0.74 0.73 0.77 0.84 0.95 0.99 1.22 1.42 1.43 1.14 1.26 1.36 1.33 1.33 1.22 1.22 1.41 1.21 0.95 0.90 1.40 1.74 1.01 0.81 0.88 0.90 0.90 0.95 1.25 1.53 1.74 1.57 1.40 1.33 1.22
1.22 1.21 1.13 0.91 0.82 0.78 0.85 0.79 0.92 1.06 1.22 1.19 1.15 1.29 1.59 1.48 1.33 1.23 1.32 1.62 1.81 1.87 1.78 1.78 1.92 1.63 1.56 1.76 1.91 1.76 1.26 1.15 1.09 1.07 1.06 1.31 1.72 2.01 2.05 1.79 1.61 1.52 1.42
1.53 1.77 1.84 1.51 1.43 1.31 1.16 1.08 1.05 1.08 1.28 1.42 1.61 1.64 1.78 1.85 1.76 1.62 1.69 1.90 2.04 2.20 2.57 2.45 2.35 2.22 2.16 2.04 2.00 1.78 1.56 1.51 1.39 1.53 1.76 1.66 1.83 2.12 2.25 2.06 1.84 1.73 1.66
2.16 2.38 2.56 2.13 2.02 1.89 1.85 1.76 1.51 1.56 1.67 1.75 1.93 2.07 2.12 2.26 2.27 2.22 2.16 2.12 1.97 2.07 2.42 2.68 2.54 2.57 2.51 2.36 2.12 1.94 1.81 1.72 1.63 1.74 1.89 2.06 2.07 2.08 2.23 2.33 2.15 1.95 1.83
2.69 2.81 2.95 2.83 2.83 2.67 2.42 2.43 2.41 2.06 2.04 2.04 2.08 2.02 2.21 2.42 2.67 2.79 2.69 2.54 2.24 2.16 2.23 2.51 2.60 2.79 2.74 2.56 1.99 1.85 1.84 1.87 1.88 1.83 1.97 2.45 2.46 2.06 2.01 2.20 2.32 2.28 2.13
3.61 3.48 3.52 3.52 3.75 3.59 3.16 2.86 2.59 2.40 2.37 2.45 2.42 2.30 2.42 2.64 2.85 2.83 2.64 2.33 2.12 2.14 2.28 2.24 2.27 2.55 2.38 2.25 2.09 2.15 2.13 2.06 1.92 1.89 1.96 2.34 2.34 1.97 1.78 1.82 2.07 2.22 2.33
4.45 4.34 4.15 3.76 4.09 4.07 3.73 3.47 3.16 2.91 2.93 2.85 2.56 2.45 2.41 2.55 2.47 2.53 2.21 1.90 1.99 2.15 2.24 2.32 2.21 2.31 2.34 2.42 2.43 2.39 2.29 2.12 1.76 1.63 1.55 1.59 1.76 1.51 1.60 1.80 1.84 1.87 2.16
4.89 5.08 5.05 4.93 4.61 4.31 4.14 3.98 3.80 3.60 3.26 2.91 2.72 2.57 2.29 2.08 1.93 2.06 1.87 1.81 1.86 2.03 2.06 1.92 2.18 2.38 2.37 2.40 2.29 2.29 1.96 1.80 1.56 1.31 1.26 1.19 1.26 1.35 1.38 1.49 1.58 1.65 2.04
4.86 5.40 5.55 5.57 5.18 4.65 4.20 3.81 3.74 3.53 3.25 2.98 2.72 2.50 2.12 1.90 1.73 1.91 1.80 1.72 1.77 1.91 1.99 2.11 2.35 2.44 2.19 2.14 2.02 1.88 1.61 1.28 1.21 1.14 0.99 1.03 1.08 1.04 1.15 1.33 1.55 1.43 1.88
4.43 5.11 5.22 5.44 4.93 4.27 3.71 3.30 3.20 3.00 2.70 2.60 2.49 2.32 2.16 1.94 1.81 1.95 1.82 1.83 1.71 1.76 1.77 1.88 2.05 2.13 1.83 1.98 2.39 2.01 1.43 1.14 1.10 0.95 0.89 0.95 0.97 1.02 1.17 1.47 1.64 1.70 1.82
3.82 4.53 4.59 4.28 4.02 3.56 3.16 2.96 2.79 2.73 2.42 2.24 2.13 2.11 1.92 1.77 1.73 1.72 1.80 1.68 1.62 1.68 1.68 1.75 1.93 1.92 1.70 1.91 2.32 2.42 1.89 1.52 1.24 0.90 0.89 0.90 1.03 1.21 1.25 1.31 1.67 1.95 1.98
3.49 3.58 3.21 3.04 3.09 3.01 2.84 2.70 2.58 2.55 2.36 2.11 1.92 1.89 1.75 1.55 1.52 1.49 1.49 1.53 1.61 1.45 1.55 1.69 1.86 1.98 1.85 1.76 2.01 2.39 2.16 1.80 1.50 1.19 1.09 1.17 1.28 1.39 1.43 1.60 1.72 1.90 2.03
2.66 2.58 2.53 2.50 2.52 2.69 2.70 2.45 2.26 1.96 1.84 1.76 1.65 1.70 1.71 1.49 1.41 1.38 1.35 1.48 1.54 1.49 1.65 1.45 1.57 1.84 1.99 1.80 1.79 1.84 1.86 2.00 1.99 1.64 1.28 1.18 1.30 1.43 1.51 1.53 1.60 1.85 2.01
2.01 2.08 2.06 2.31 2.39 2.42 2.39 2.32 2.30 2.03 1.84 1.78 1.89 2.07 1.97 1.67 1.40 1.25 1.30 1.43 1.50 1.52 1.58 1.56 1.64 1.62 1.68 1.70 1.73 1.72 1.80 2.00 1.90 1.84 1.63 1.41 1.36 1.25 1.33 1.45 1.60 1.80 1.87
1.35 1.48 1.59 1.84 2.05 2.11 2.07 2.07 2.10 2.10 2.03 1.84 1.78 1.81 1.71 1.56 1.40 1.25 1.26 1.44 1.48 1.51 1.53 1.56 1.55 1.50 1.56 1.64 1.68 1.72 1.82 1.81 1.76 1.89 1.76 1.56 1.48 1.25 1.27 1.36 1.52 1.65 1.67